カタログに戻る

STARLINK-5647

運用中通信VLEO
NORAD 55355·PAYLOAD·🇺🇸 United States

打ち上げ Jan 26, 2023 から Cape Canaveral Space Force Station

Loading…

次のパス (今後24時間)

TLE

最新Source: CelesTrak SupGP

元期: Sep 15, 2026, 01:56 UTC

1 55355C 23013AA  26258.08104167  .00024436  00000+0  88513-3 0  2586
2 55355  43.0004 313.7583 0001399 265.5846 285.9339 15.27564431    12

AllMySatでSTARLINK-5647をリアルタイム追跡

Download on the App Store